{"data":{"norad_id":56914,"intl_designator":"2023-083AQ","name":"STARLINK-5961","alt_names":[],"object_type":"PAYLOAD","status":"ACTIVE","operator":null,"country":"US","launch_date":"2023-06-12","launch_site_code":"AFETR","launch_vehicle":null,"mission":null,"orbit_class":"UNKNOWN","rcs_meters":null,"size_class":null,"mass_kg":null,"dimensions":null,"purposes":["comms"],"wikipedia_slug":null,"has_3d_model":false,"image_url":null,"decayed_at":null,"tle_current":{"epoch":"2026-05-25T00:02:14.345952Z","epoch_age_seconds":74935,"freshness":"FRESH","line1":"1 56914U 23083AQ  26145.00155493  .00000820  00000+0  39334-4 0  9991","line2":"2 56914  43.0045 359.3132 0001282 255.3164 104.7546 15.27574663163472","mean_motion":15.27574663,"eccentricity":0.0001282,"inclination_deg":43.0045,"raan_deg":359.3132,"arg_perigee_deg":255.3164,"mean_anomaly_deg":104.7546,"bstar":3.9334e-5,"rev_number":16347,"period_min":94.267078060328,"perigee_km":482.18547087789,"apogee_km":483.94468309043,"semimajor_km":6861.2020769842,"source":"CELESTRAK","updated_at":"2026-05-25T13:38:18.204491Z"}}}